CAPE
1297 1397 1705 1782 1819 1827 1438 1526 1724 1722 2069 2624 2127 1907 2029 2303 2885 2724 2634 2022 2230 2030 1546 1027 1519 1572 749 237 101 92 59 86 95 183 85 159 179 271 290 411 29 0 0
1371 1545 1762 1757 1689 1510 1484 1368 1634 1797 1888 2466 2706 2481 2695 2602 2853 2675 2537 2348 2261 2035 2169 2110 1725 1650 1410 768 534 226 84 95 83 90 201 104 153 235 239 303 19 0 0
1294 1390 1368 1474 1590 1482 1356 1504 1433 1886 2065 1844 2189 2748 2617 2472 2492 2644 2422 2419 2028 2049 2024 2331 2305 2090 1817 1285 948 411 239 71 11 46 54 44 7 151 179 142 1 3 0
1169 1270 1299 1271 1390 1363 1438 1708 1689 2000 2262 2319 2354 2465 2711 2720 2512 2434 2311 2427 2689 2226 2280 2249 2267 2426 2257 2049 1630 1025 244 41 33 48 10 0 0 102 201 98 96 0 1
1436 1459 1396 1531 1623 1795 1806 2117 2400 2478 2738 2886 3026 3110 3110 2869 2498 2558 2625 2470 2459 2408 2031 2152 2330 2533 2348 2314 1712 1400 656 49 37 18 0 0 0 35 180 213 121 63 3
2090 2042 2084 2323 2193 2216 2398 2676 2888 3008 2919 2604 2292 2524 3239 2954 2486 2019 2234 2633 2698 2796 2773 2101 2222 2225 2312 1561 1180 695 631 168 9 0 0 0 0 8 93 183 136 88 7
2319 2317 2343 2585 2496 2594 2221 1850 1598 1703 1696 1642 1907 2030 1996 2379 1922 1541 1340 1920 1712 1690 2266 2655 2682 2195 1906 2462 720 246 33 2 41 0 34 0 0 39 200 207 157 29 6
2067 1772 1798 1613 1520 852 917 469 484 439 556 1205 1615 2117 1989 1447 530 457 333 203 741 609 1196 2186 2746 2863 2857 2567 1617 330 59 3 1 3 2 0 0 33 257 268 174 57 14
1436 1566 1611 1592 1329 1014 834 853 946 780 1049 1114 1115 1220 1281 1366 724 160 80 311 269 678 1297 1744 2448 2551 2379 1674 1005 484 191 80 0 0 0 0 0 0 196 222 201 73 9
444 650 683 822 938 1201 1219 1225 1029 965 882 755 588 522 577 460 296 5 0 122 346 494 1063 1166 831 745 528 549 658 204 205 155 35 2 0 0 0 0 3 158 52 33 25
568 690 762 1005 1093 1020 1008 1147 1161 991 922 963 978 1035 1092 991 617 48 0 13 119 251 423 736 629 288 140 145 173 175 274 308 80 1 0 0 0 0 0 0 48 18 37
1208 1372 1351 1312 910 923 1324 1383 1353 1217 1164 1092 1037 916 661 891 850 436 2 0 0 129 380 570 329 36 0 1 7 20 0 20 3 0 0 0 0 0 0 1 1 0 1
1380 1440 1278 1320 1372 1038 1072 1133 976 1108 955 836 755 569 480 740 745 435 126 0 0 3 338 198 0 0 0 0 0 0 0 0 0 0 0 0 0 0 0 0 0 0 7
1503 1393 1130 784 411 916 552 605 574 502 684 807 515 375 350 883 864 867 658 477 10 0 0 4 13 1 0 0 0 0 0 0 0 0 0 0 0 0 0 0 0 0 0
1308 968 845 342 571 697 765 46 46 142 53 226 337 346 415 445 334 26 140 391 432 189 144 47 92 101 39 16 1 0 0 0 0 0 0 0 0 0 0 0 0 0 0
1162 433 462 277 266 175 272 557 0 0 0 0 0 4 198 9 0 16 94 46 39 40 394 667 652 450 216 102 68 10 0 0 0 0 0 0 0 0 0 0 0 0 0
1580 1258 717 334 276 460 449 428 593 242 0 0 0 0 0 0 0 11 15 38 57 130 730 620 570 312 203 172 175 104 26 1 0 0 0 0 0 0 0 0 0 0 0
1859 987 742 801 410 689 910 628 379 409 551 492 0 0 0 0 3 16 34 72 458 343 425 608 613 492 262 254 179 97 45 3 0 0 0 0 0 0 0 0 2 16 0
1259 963 951 751 778 723 900 765 577 592 603 487 492 0 0 0 0 9 22 130 407 364 250 214 265 282 313 218 133 31 4 2 0 0 0 0 2 0 0 0 0 2 7
1146 472 259 865 922 1005 773 822 646 794 753 471 264 96 23 0 58 122 221 357 321 283 265 228 250 290 253 177 30 3 3 3 2 0 0 0 0 0 0 0 6 0 0
606 747 305 867 801 583 462 259 167 250 746 665 338 293 0 72 536 593 516 432 357 272 227 298 278 314 322 137 21 13 7 2 1 0 1 0 0 0 0 2 0 0 0
741 638 619 662 614 544 148 288 45 78 757 868 518 87 0 13 721 676 578 600 494 394 341 268 332 434 417 398 103 7 1 2 1 0 0 0 0 0 5 0 0 0 2
82 151 334 551 575 38 426 633 732 424 329 487 422 640 398 587 836 800 761 753 770 666 482 319 423 391 319 261 254 276 202 75 22 0 0 0 0 0 0 0 0 1 14
0 0 169 216 189 487 359 403 578 343 763 910 777 662 453 527 885 993 1004 1044 936 798 539 267 265 271 134 165 168 161 80 111 83 26 0 0 0 0 0 0 1 9 10
0 0 177 376 384 280 480 392 423 565 524 541 717 1035 1186 1204 870 984 1178 1152 1038 915 781 558 406 268 150 219 334 159 0 0 0 0 0 0 0 0 5 11 28 3 4
0 2 22 107 155 32 13 3 9 98 151 82 228 569 877 1085 1290 1341 1271 1176 1083 939 743 495 452 310 258 248 165 0 0 0 0 0 0 1 9 34 18 4 0 3 1
CIN
-73 -63 -86 -85 -79 -77 -64 -56 -41 -18 -9 -12 -13 -17 -12 -2 -3 -11 -10 -10 -3 -3 -23 -58 -33 -29 -48 -63 -99 -92 -89 -60 -21 -2 -27 -17 -52 -24 -18 -21 -3 0 0
-90 -102 -105 -96 -101 -68 -68 -63 -53 -43 -28 -20 -16 -13 -8 -6 -5 -8 -9 -9 -5 -5 -8 -12 -24 -9 -35 -40 -36 -99 -108 -79 -47 -13 -2 -5 -12 -24 -14 -5 -3 0 0
-143 -137 -109 -97 -94 -87 -65 -60 -61 -61 -49 -34 -29 -17 -16 -16 -17 -7 -20 -12 -21 -13 -16 -11 -10 -6 -9 -19 -30 -70 -87 -171 -143 -81 -34 -47 -71 -16 -7 -2 -1 -1 -1
-161 -136 -133 -108 -106 -77 -75 -75 -54 -64 -63 -49 -41 -35 -28 -24 -23 -19 -12 -11 -1 -4 -13 -10 -4 -1 -3 -9 -10 -13 -112 -185 -201 -155 -125 -49 0 -17 -1 -3 -1 -1 -1
-183 -185 -177 -151 -121 -106 -91 -77 -63 -46 -29 -34 -27 -24 -26 -40 -50 -51 -44 -33 -16 -7 -15 -11 -6 -2 -12 -17 -12 -3 -49 -175 -126 -148 0 0 0 -25 -1 -2 -5 -2 -2
-133 -115 -114 -98 -100 -84 -61 -42 -37 -42 -61 -66 -80 -58 -8 -21 -50 -74 -65 -43 -25 -10 -10 -33 -11 -9 -8 -51 -73 -75 -89 -101 -181 0 0 0 0 -7 -4 -8 -12 -2 -1
-88 -82 -71 -52 -53 -30 -58 -83 -98 -93 -71 -112 -58 -52 -67 -60 -81 -110 -130 -51 -77 -81 -32 -2 -1 -3 -5 0 -112 -160 -245 -163 -136 -15 -128 0 0 -9 -2 -10 -9 -2 -2
-45 -74 -71 -92 -103 -187 -156 -179 -189 -139 -139 -95 -37 -40 -37 -87 -198 -213 -247 -221 -120 -137 -94 -49 -1 -1 0 0 -18 -129 -165 -203 -134 -103 -63 0 0 -16 -3 -11 -9 -8 -3
-52 -44 -36 -32 -55 -96 -131 -120 -66 -91 -66 -56 -52 -55 -55 -46 -118 -274 -327 -163 -143 -96 -71 -49 -8 -1 -2 -18 -47 -79 -126 -154 0 0 0 0 0 -2 -6 -6 -3 -1 -2
-153 -121 -116 -88 -59 -25 -19 -26 -43 -37 -41 -64 -118 -123 -98 -120 -172 -138 0 -224 -107 -66 -58 -49 -79 -124 -151 -94 -50 -160 -139 -95 -184 0 0 0 0 0 -183 -10 -5 -2 -1
-99 -81 -87 -57 -43 -38 -32 -12 -7 -13 -26 -28 -29 -30 -38 -38 -78 -175 0 -191 -177 -135 -74 -43 -84 -168 -217 -183 -115 -84 -34 -4 -130 -1 0 0 0 0 0 0 -20 -26 -20
-43 -25 -27 -30 -47 -30 -8 -3 -7 -10 -4 -3 -6 -17 -11 -14 -41 -153 -27 0 0 -183 -96 -66 -107 -265 0 -105 -164 -41 0 -57 -19 0 0 0 0 0 0 -26 -34 0 -5
-36 -23 -27 -24 -17 -36 -25 -14 -3 -1 -1 -1 -1 -3 -2 -4 -17 -98 -194 0 0 -15 -70 -131 0 0 0 0 0 0 0 0 0 0 0 0 0 0 0 0 0 0 -57
-40 -40 -49 -58 -103 -52 -51 -52 -51 -40 -41 -21 -4 -6 -17 -1 -4 -4 -34 -83 -22 0 0 -173 -195 -48 0 0 0 0 0 0 0 0 0 0 0 0 0 0 0 0 0
-44 -49 -46 -58 -63 -43 -63 -158 -148 -198 -247 -101 -50 -49 -30 -11 -98 -299 -181 -63 -69 -138 -109 -122 -85 -67 -100 -134 0 0 0 0 0 0 0 0 0 0 0 0 0 0 0
-22 -35 -31 -41 -51 -62 -58 -52 0 0 0 0 0 -27 -120 -54 -37 -352 -223 -223 -217 -220 -50 -6 -1 0 -13 -30 -58 -117 0 0 0 0 0 0 0 0 0 0 0 0 0
-8 -19 -18 -45 -45 -43 -38 -38 -6 -102 0 0 0 0 0 -6 0 -268 -282 -246 -217 -147 -7 -6 0 -9 -21 -19 -22 -48 -144 -159 0 0 0 0 0 0 0 0 0 0 0
-5 -55 -23 -16 -34 -24 -18 -24 -29 -10 -4 -25 0 0 0 0 -336 -299 -294 -231 -72 -88 -46 -13 -5 -7 -18 -7 -20 -50 -72 0 0 0 0 0 0 0 0 0 -26 -13 0
-19 -2 -5 -9 -22 -43 -28 -25 -12 -11 -26 -7 -33 0 0 0 0 -315 -322 -220 -100 -100 -112 -99 -58 -33 -11 -23 -37 -129 0 0 0 0 0 0 -2 0 0 0 0 -4 -12
-21 -99 -153 -11 -2 -2 -5 -18 -13 -1 -9 -9 -26 -58 -93 -9 -157 -156 -143 -86 -68 -71 -78 -92 -84 -53 -45 -57 -142 -4 0 0 0 0 0 0 0 0 0 0 -3 0 0
-14 -20 -113 -12 -6 -10 -18 -46 -76 -57 -1 -2 -7 -68 0 -126 -71 -48 -36 -43 -47 -82 -122 -79 -80 -45 -28 -69 -76 -41 -55 -2 0 0 0 0 0 0 -12 -10 -1 0 0
-13 -14 -12 -14 -24 -21 -70 -45 -114 -96 -10 -2 -4 -51 0 -52 -48 -35 -35 -34 -42 -73 -80 -103 -60 -17 -10 -5 -76 -69 -14 0 0 0 0 0 0 0 -3 0 0 0 -13
-177 -107 -25 -5 -24 -154 -30 -7 -10 -39 -36 -28 -27 -14 -69 -41 -14 -10 -9 -7 -16 -24 -45 -88 -51 -42 -41 -31 -12 -2 -1 -13 -34 0 0 -1 -1 0 0 0 0 -30 -4
0 0 -51 -32 -49 -10 -3 -9 -7 -46 -12 -10 -5 -6 -21 -20 -3 -2 -3 -1 -7 -8 -47 -113 -95 -76 -92 -60 -36 -28 -39 -20 -33 -20 0 0 0 0 0 0 -5 -3 -3
0 -7 -35 -4 -2 -2 -1 -2 -2 -1 -2 -2 -2 -1 -2 -1 -10 -7 -2 0 -2 -6 -10 -19 -37 -61 -83 -39 -3 -15 0 0 0 0 0 0 0 0 -2 -8 -3 -3 -2
0 -26 -88 -27 -7 -40 -27 -1 -7 -8 -1 -3 -7 -2 -2 -1 -1 -1 -1 -1 -1 -2 -4 -8 -9 -26 -21 -11 -19 0 0 0 0 0 0 -4 -6 -3 -2 -1 0 -2 -2
Wind_Speed
9 7 5 4 3 2 2 2 3 4 7 8 9 13 13 11 10 8 7 10 6 8 9 10 7 9 12 11 11 12 12 12 7 14 15 13 10 8 8 8 5 4 4
3 4 1 1 3 2 2 1 1 2 5 8 9 9 12 12 12 13 13 14 13 11 12 10 8 9 11 12 11 12 13 15 9 11 17 13 10 7 7 7 6 5 5
12 9 4 3 2 2 3 3 0 2 4 6 8 12 13 14 13 15 16 14 13 14 13 12 12 13 13 13 12 13 13 14 12 13 13 14 11 7 6 5 5 4 5
11 7 6 3 2 2 2 3 4 5 7 8 9 12 14 15 16 16 16 18 18 17 16 16 16 15 15 13 12 12 13 13 8 9 10 12 7 6 4 3 3 3 4
13 13 12 10 10 6 5 7 7 9 9 9 10 12 13 13 13 14 17 19 20 22 21 19 18 17 16 15 14 12 14 15 10 11 11 16 11 7 4 1 2 3 5
16 16 16 15 14 13 11 10 6 7 11 12 14 15 15 15 16 15 16 19 21 22 24 24 24 23 20 19 16 18 13 14 13 11 10 13 11 10 8 5 3 6 6
15 16 16 15 15 14 14 13 12 11 17 12 14 24 21 21 23 22 23 25 25 26 27 29 28 26 24 21 20 16 17 14 13 12 19 15 14 11 6 3 6 5 7
16 16 15 15 14 14 15 17 21 22 19 20 22 22 22 22 32 27 22 27 25 28 30 30 31 28 25 21 19 17 15 13 11 11 9 10 18 21 6 1 3 3 9
17 17 17 17 17 16 17 20 23 25 25 24 24 24 25 26 20 22 24 26 23 25 22 30 32 32 29 22 18 15 15 13 12 9 9 9 8 18 7 3 3 2 3
17 17 17 18 18 18 19 20 21 22 23 23 23 23 23 23 20 19 20 24 24 22 22 22 26 29 30 24 16 15 14 11 10 8 8 4 5 6 2 6 3 3 2
17 17 18 18 18 19 19 20 21 22 25 25 26 26 25 24 23 22 23 23 23 23 23 21 24 26 21 18 15 13 13 12 7 7 5 3 3 2 7 5 3 3 2
19 19 19 19 19 19 21 21 21 22 24 25 25 27 25 25 24 25 25 24 24 22 22 19 19 20 20 17 14 15 15 13 8 7 4 5 4 5 7 4 6 10 13
20 20 20 20 19 21 22 23 22 21 23 25 25 27 27 28 28 24 24 23 23 21 20 20 22 22 19 16 15 13 9 7 3 1 3 3 6 7 5 6 7 9 11
18 19 20 19 20 21 22 23 23 23 23 23 24 26 28 26 25 26 24 22 21 20 18 18 17 15 14 14 14 12 10 8 5 4 4 5 5 5 4 5 6 6 9
16 16 17 18 19 20 22 23 23 22 21 22 24 25 26 25 25 23 21 20 19 17 15 14 14 13 13 14 14 11 9 8 6 5 5 4 4 4 5 6 6 8 11
12 14 16 17 17 18 19 18 18 18 19 21 21 22 22 21 23 20 19 18 17 16 16 14 13 13 14 14 14 12 10 8 6 5 4 3 2 3 5 6 5 7 6
11 12 12 12 14 16 16 14 15 15 16 18 19 21 17 19 20 19 19 18 18 18 17 16 15 14 13 12 11 10 7 9 7 5 4 3 4 6 4 4 5 6 7
10 12 10 11 11 11 11 11 11 12 13 14 15 16 17 17 18 19 18 19 20 18 18 17 17 14 10 15 12 8 8 6 4 4 3 3 3 4 4 4 4 5 7
11 11 11 12 12 12 13 12 12 12 12 12 15 15 15 16 15 17 10 11 9 10 10 9 9 8 8 10 11 11 8 6 5 4 3 3 4 4 5 5 7 10 8
15 14 12 12 13 13 13 14 14 14 13 14 16 17 17 18 16 13 11 11 11 11 11 11 11 12 13 12 13 12 11 8 6 5 4 4 5 6 6 5 6 6 7
14 14 13 12 14 16 16 16 15 15 14 13 13 15 14 12 10 11 12 12 13 14 14 14 15 14 14 14 13 12 11 10 9 7 6 4 5 7 8 6 6 6 7
13 13 13 14 14 14 15 16 17 15 15 14 13 13 11 10 10 11 12 13 15 17 17 15 14 14 15 14 13 12 11 10 9 7 6 7 7 8 9 7 7 7 7
14 13 13 14 14 14 13 16 17 16 13 13 13 13 13 11 11 11 11 12 14 15 16 15 15 14 14 14 12 11 11 10 10 9 10 9 8 8 8 8 8 8 8
15 14 14 16 15 15 15 16 16 17 16 14 12 12 11 10 10 9 10 12 13 13 15 15 15 15 13 13 12 11 11 12 11 10 9 8 8 8 8 8 8 9 9
16 14 14 14 14 15 15 15 15 15 16 17 16 14 11 10 9 8 8 10 11 12 14 14 15 15 13 12 11 12 12 11 11 11 12 12 11 11 9 11 9 9 9
15 14 13 14 15 15 16 16 16 16 17 17 17 16 16 14 11 10 9 9 10 11 13 14 14 14 12 12 11 11 10 10 12 13 13 13 13 12 11 9 10 10 8
Wind_Direction
151 139 118 99 83 65 87 61 55 18 351 343 339 323 323 328 337 354 357 347 14 359 353 354 11 8 4 15 16 19 25 30 46 26 32 37 51 94 115 128 77 104 49
163 165 196 8 355 4 15 5 15 10 340 333 330 330 321 319 318 318 319 316 321 325 327 336 345 349 347 348 354 356 0 3 26 14 8 21 22 45 74 110 97 108 58
299 303 297 290 260 284 311 333 2 331 324 322 318 314 313 312 313 311 308 308 307 308 314 317 319 323 325 331 333 338 346 353 359 360 5 1 9 30 40 59 70 73 76
305 319 320 307 222 244 268 285 312 318 318 317 315 313 311 309 308 308 306 305 303 302 303 306 309 310 310 315 319 325 332 339 350 355 3 6 36 41 43 37 22 40 38
310 312 313 317 317 319 313 312 316 317 319 317 316 313 309 307 306 304 303 301 301 301 301 302 303 302 300 301 307 311 317 323 333 339 347 339 342 359 343 352 357 6 2
310 312 315 314 311 313 314 313 314 317 311 314 312 312 311 309 306 304 303 302 301 301 300 301 301 302 299 295 292 305 304 312 322 327 335 338 328 325 328 310 309 335 345
318 315 317 317 313 314 313 316 317 321 320 325 323 303 304 304 302 302 302 302 303 301 299 298 301 302 303 303 302 292 303 305 317 315 317 324 327 315 321 302 310 336 348
327 327 328 327 324 320 315 308 308 310 313 314 314 309 305 309 298 302 303 299 298 300 297 295 295 300 302 300 302 301 299 307 310 315 319 326 320 313 305 177 359 17 343
332 331 329 327 325 322 318 314 313 312 314 318 319 317 313 311 314 312 310 310 306 301 304 296 293 298 303 301 295 291 300 296 306 312 324 332 336 302 317 84 89 74 17
338 337 337 335 332 327 324 322 322 320 319 320 320 319 317 318 321 320 319 318 317 317 314 311 304 301 303 306 296 297 301 293 301 312 319 339 333 328 23 137 68 125 84
2 357 350 346 342 337 333 330 327 324 321 320 317 317 317 316 316 318 319 321 321 321 319 320 312 309 312 315 312 308 312 318 311 308 314 355 16 78 134 136 100 128 39
5 359 360 1 354 347 342 339 336 331 328 326 324 321 320 320 320 318 316 312 316 319 321 328 331 323 318 316 314 311 310 314 313 302 306 334 353 84 106 66 355 333 330
18 13 14 20 20 3 350 344 343 343 337 333 330 326 324 321 319 323 319 316 313 313 319 325 326 328 332 334 332 334 344 337 337 336 327 35 89 79 39 20 3 348 345
33 27 26 33 30 24 17 9 356 349 346 342 337 334 329 330 329 327 323 320 320 317 318 325 337 351 359 2 357 4 5 25 42 67 24 57 71 44 22 4 11 13 345
35 35 38 43 42 40 33 34 34 24 17 2 350 343 338 336 330 330 332 329 331 335 339 345 350 354 359 2 2 6 13 34 57 44 34 12 28 23 6 354 25 357 347
52 46 35 40 47 39 43 47 48 42 33 24 20 6 349 354 338 342 348 348 353 358 348 2 4 2 0 8 358 357 7 20 37 62 64 85 50 17 352 344 36 21 41
61 49 56 62 52 43 44 50 47 52 47 33 29 18 16 313 351 358 359 2 355 346 352 354 357 2 4 20 46 49 54 9 15 44 63 27 35 8 348 13 34 40 17
57 48 67 66 66 67 64 59 56 55 50 54 53 45 21 336 340 350 8 6 356 360 353 348 336 353 35 350 5 29 20 28 43 47 43 34 49 42 80 83 62 34 10
54 58 62 61 60 52 46 57 55 54 57 75 67 85 94 40 15 21 80 135 141 136 137 146 136 109 75 39 21 17 24 37 38 37 42 74 83 84 85 54 10 355 16
45 44 56 54 48 53 57 48 49 52 70 81 78 91 109 113 110 106 114 112 111 102 100 94 74 57 47 43 33 29 34 50 62 55 55 68 75 93 83 60 22 37 51
47 46 46 53 43 38 41 46 52 60 68 82 85 89 102 116 115 108 98 85 77 66 63 60 46 44 42 44 47 46 56 64 76 74 70 57 85 103 107 76 79 61 50
38 39 41 40 41 44 42 48 48 57 60 70 74 67 82 102 104 99 85 68 51 41 39 45 50 43 33 34 47 57 60 63 70 64 63 74 93 112 101 61 75 76 102
22 26 30 30 32 35 49 37 36 46 56 58 61 65 68 79 77 76 66 59 51 47 39 39 38 37 29 36 52 60 66 70 72 86 100 105 95 93 92 78 75 89 84
5 17 20 20 30 30 30 26 28 31 33 43 52 53 57 65 67 60 50 40 38 36 31 31 27 21 24 29 41 51 62 64 71 76 78 76 75 78 89 87 100 89 70
1 17 20 21 24 22 21 21 19 18 17 17 19 27 37 41 37 41 43 37 34 29 25 24 21 17 18 20 36 32 38 57 70 79 93 101 93 101 94 112 89 80 72
360 9 14 17 18 17 16 15 14 14 11 13 10 12 13 14 22 27 34 36 31 27 25 27 26 27 31 23 17 24 48 75 88 103 98 106 114 116 98 80 91 83 56